Погода в Мугур-Аксы

Россия / Республика Тыва     50°22′57″N   90°25′57″E
В апреле 2022 года жителям России запретили посещать сайт meteo.paraplan.net по решению Генеральной прокуратуры. Аудитория сайта уменьшилась в 10 раз. Владельцы сайта не видят смысла в поддержке погодного сервера в таких условиях. Сайт будет закрыт в октябре.
темп.,
°C
ветер,
м/с
пор.,
м/с
влажн.,
%
обл.,
%
осадки,
мм/ч
давл.,
гПа
погр.,
м
29 сентября, чт
чт2901:00−2ююз227797 0.1 100821
04:00−2юз2270100 0.0 100821
07:00−3ю347787 0.0 100766
10:00+1ю585660 0.0 10031180
13:00+3ююз595071 0.3 10001738
16:00+2юз13163362 0.1 10002175
19:00−3зюз511562 0.1 1005609
22:00−5зсз227418 0.2 1009140
30 сентября, пт
пт3001:00−8с348594 0.9 1014433
04:00−11ссв448496 0.5 1018452
07:00−13с458384 0.6 1022397
10:00−11с3366100 0.1 1021782
13:00−9с3461100 0.3 10191265
16:00−9с4472100 0.7 1020906
19:00−11ссв338599 1.2 1024413
22:00−13ссз228848 0.3 1027204
1 октября, сб
сб101:00−13с339087 0.6 1029285
04:00−15с229299 0.1 1031152
07:00−15ссз1287100 0.1 1033121
10:00−12ссв2265100 0.0 1032751
13:00−10с3250100 0.1 10301647
16:00−10с445099 0.1 10311424
19:00−14ссз226919 0.2 1036142
22:00−14ссз227774 0.0 103978
2 октября, вс
вс201:00−14с119031 0.1 103983
04:00−16зсз11919 0.0 104219
07:00−16з11853 0.0 104312
10:00−11ююз11410 0.0 1040532
13:00−8ю11260 0.0 10361011
16:00−6ююв22260 0.0 10341252
19:00−10ююв23570 0.0 103838
22:00−11ю22580 0.0 104030
3 октября, пн
пн301:00−11ююз22550 0.0 104125
04:00−12ююз22580 0.0 104120
07:00−12ююз32610 0.0 104123
10:00−8ю33430 0.0 1038473
13:00−5ю33330 0.0 1034834
16:00−4ююв33300 0.0 1032893
19:00−8ю33460 0.0 103725
22:00−9ююз32460 0.0 103824